Miscellaneous Local Product
Issued by NWS Hastings, NE

Home | Current Version | Previous Version | Graphics & Text | Print | Product List | Glossary On
Versions: 1 2 3 4 5 6 7 8 9 10 11 12 13 14 15 16 17 18 19 20 21 22 23 24 25 26 27 28 29 30 31 32 33 34 35 36 37 38 39 40 41 42 43 44 45 46 47 48 49 50
982
AXUS43 KGID 232102
MISGRI

GID CWA HOURLY WEATHER ROUNDUP
NATIONAL WEATHER SERVICE HASTINGS NE
400 PM CDT FRI JUN 23 2017

NOTE: "FAIR" INDICATES FEW OR NO CLOUDS BELOW 12,000 FEET WITH NO
SIGNIFICANT WEATHER AND/OR OBSTRUCTIONS TO VISIBILITY.

...SOUTH CENTRAL NEBRASKA...

CITY           SKY/WX    TMP DP  RH WIND       PRES   REMARKS
GRAND ISLAND   MOSUNNY   75  45  34 NW18G25   30.06S
HASTINGS       SUNNY     76  45  33 NW17G26   30.08F
KEARNEY        SUNNY     77  43  29 N15G23    30.08S
ORD            CLOUDY    71  45  39 NW14      30.08R
YORK             N/A     75  48  38 N15G24    30.04F
AURORA         MOSUNNY   75  44  33 N21G26    30.05S
LEXINGTON      MOSUNNY   74  44  33 N9G20     30.10F
HOLDREGE       MOSUNNY   74  45  34 N13       30.09F
HEBRON         MOSUNNY   78  49  36 N10G18    30.05S

...NEBRASKA PANHANDLE...

CITY           SKY/WX    TMP DP  RH WIND       PRES   REMARKS
CHADRON        SUNNY     72  26  18 NW20G29   30.14F
ALLIANCE       SUNNY     72  30  21 N17G24    30.16F
SCOTTSBLUFF    SUNNY     74  35  24 NW16G23   30.18F
SIDNEY         MOSUNNY   71  37  28 N12       30.21F

...WESTERN AND NORTH CENTRAL NEBRASKA...

CITY           SKY/WX    TMP DP  RH WIND       PRES   REMARKS
VALENTINE      PTSUNNY   73  35  25 N15G24    30.12F
AINSWORTH      PTSUNNY   67  41  38 N16G28    30.11F
ONEILL         PTSUNNY   71  45  39 NW20G28   30.08S
BROKEN BOW     MOSUNNY   74  44  34 NW17G24   30.10F
IMPERIAL       CLOUDY    73  35  25 NW10      30.17S
NORTH PLATTE   SUNNY     78  40  25 NW13G21   30.11F
MCCOOK         MOSUNNY   76  44  32 VRB3G17   30.11F

...EASTERN NEBRASKA...

CITY           SKY/WX    TMP DP  RH WIND       PRES   REMARKS
NORFOLK        MOSUNNY   70  48  45 NW17G23   30.02S
SO SIOUX CITY  PTSUNNY   71  50  47 NW21      29.98S
TEKAMAH        MOSUNNY   76  48  37 NW23G31   29.98F
ALBION         PTSUNNY   72  45  38 NW14G25   30.06R
OMAHA EPPLEY   PTSUNNY   76  52  43 N16G26    29.97F
OFFUTT AFB     PTSUNNY   72  50  46 N10G18    29.99F
MILLARD        PTSUNNY   75  54  47 N12G18    29.99F
LINCOLN        MOSUNNY   75  51  43 N14G22    30.02S
NEBRASKA CITY  MOSUNNY   73  56  55 NW18      30.00S
BEATRICE       SUNNY     76  52  42 NW16G26   30.02S
FALLS CITY     SUNNY     73  55  53 N12G23    29.99R

...NORTHERN KANSAS...

CITY           SKY/WX    TMP DP  RH WIND       PRES   REMARKS
GOODLAND       CLOUDY    68  45  43 W5        30.18F
HILL CITY      MOSUNNY   80  46  30 N9        30.10F
NORTON         PTCLDY    81  34  18 NW7G20    30.09F
PHILLIPSBURG   MOSUNNY   82  43  24 NW9G20    30.08F
SMITH CENTER   SUNNY     79  46  31 NW13G22   30.08F
HAYS           MOSUNNY   75  48  38 VRB7      30.10F
RUSSELL        SUNNY     78  47  33 N10       30.07F
CONCORDIA      SUNNY     79  47  32 N14G21    30.05S
SALINA         SUNNY     80  44  27 N10       30.04R
TOPEKA         SUNNY     78  54  43 N13       29.99R



USA.gov is the U.S. government's official web portal to all federal, state and local government web resources and services.